Alexandria, LA

3:01 PM CDT on July 27, 2016 (GMT -0500)
Alexandria International

Weather History for KAEX - December, 2000

Change the Weather History Date:

Sunday, December 31, 2000

  Actual Average Record
Temperature  
Mean Temperature 29 °F 49 °F  
Max Temperature 34 °F 59 °F 81 °F (1984)
Min Temperature 24 °F 39 °F 13 °F (1983)
Degree Days  
Heating Degree Days 36 16  
Month to date heating degree days 465  
Since 1 July heating degree days 789  
Moisture  
Dew Point 23 °F    
Average Humidity 76    
Maximum Humidity 93    
Minimum Humidity 61    
Precipitation  
Precipitation 0.01 in 0.13 in 2.39 in (1911)
Month to date precipitation 6.12  
Year to date precipitation 55.92  
Snow  
Snow 0.00 in - 0.00 in ()
Month to date snowfall  
Since 1 July snowfall  
Snow Depth -    
Sea Level Pressure  
Sea Level Pressure 30.40 in    
Wind  
Wind Speed 3 mph (NE)    
Max Wind Speed 10 mph    
Max Gust Speed -    
Visibility 9 miles    
Events Snow    
T = Trace of Precipitation, MM = Missing Value Source: NWS Daily Summary

Daily Weather History Graph

Daily Weather History Graph

Search for Another Location

Airport or City:

Trip Planner

Search our weather history database for the weather conditions in past years. The results will help you decide how hot, cold, wet, or windy it might be!

Date:

Astronomy

Dec. 31, 2000 Rise Set
Actual Time 7:09 AM CST 5:18 PM CST
Civil Twilight 6:42 AM CST 5:44 PM CST
Nautical Twilight 6:12 AM CST 6:15 PM CST
Astronomical Twilight 5:42 AM CST 6:44 PM CST
Moon 11:06 AM CST (12/31) 10:40 PM CST (12/31)
Length of Visible Light 11h 02m
Length of Day
10h 08m
Waxing Crescent, 29% of the Moon is Illuminated
Dec 31
Waxing Crescent
Jan 2
First Quarter
Jan 9
Full
Jan 16
Last Quarter
Jan 24
New

Hourly Weather History & Observations

Time (CST) Temp. Windchill Dew Point Humidity Pressure Visibility Wind Dir Wind Speed Gust Speed Precip Events Conditions
12:53 AM 25.0 °F - 19.9 °F 81% 30.37 in 10.0 mi Calm Calm - N/A   Clear
1:53 AM 24.1 °F - 21.0 °F 88% 30.38 in 10.0 mi Calm Calm - N/A   Clear
2:53 AM 26.1 °F 18.4 °F 21.0 °F 81% 30.38 in 10.0 mi NE 6.9 mph - N/A   Clear
3:53 AM 25.0 °F 19.3 °F 21.9 °F 88% 30.39 in 10.0 mi ENE 4.6 mph - N/A   Clear
4:53 AM 25.0 °F 19.3 °F 21.0 °F 85% 30.38 in 10.0 mi ENE 4.6 mph - N/A   Partly Cloudy
5:53 AM 25.0 °F - 21.0 °F 85% 30.40 in 10.0 mi Calm Calm - N/A   Clear
6:53 AM 25.0 °F - 21.9 °F 88% 30.42 in 10.0 mi Calm Calm - N/A   Overcast
7:53 AM 27.0 °F - 21.9 °F 81% 30.44 in 10.0 mi Calm Calm - N/A   Overcast
8:53 AM 28.9 °F 21.9 °F 21.9 °F 75% 30.44 in 10.0 mi East 6.9 mph - N/A   Overcast
9:53 AM 30.0 °F 22.4 °F 21.0 °F 69% 30.45 in 10.0 mi East 8.1 mph - N/A   Overcast
10:53 AM 30.9 °F 26.2 °F 21.0 °F 67% 30.44 in 10.0 mi SE 4.6 mph - N/A   Overcast
11:53 AM 32.0 °F 26.4 °F 21.0 °F 64% 30.42 in 10.0 mi ENE 5.8 mph - N/A   Overcast
12:53 PM 32.0 °F - 21.9 °F 66% 30.38 in 10.0 mi Calm Calm - N/A   Overcast
1:53 PM 34.0 °F 28.8 °F 21.9 °F 61% 30.35 in 10.0 mi Variable 5.8 mph - N/A   Overcast
2:53 PM 34.0 °F 28.8 °F 21.9 °F 61% 30.34 in 10.0 mi ENE 5.8 mph - N/A   Overcast
3:53 PM 34.0 °F 31.0 °F 21.9 °F 61% 30.33 in 10.0 mi ENE 3.5 mph - N/A   Overcast
4:53 PM 33.1 °F 27.7 °F 23.0 °F 66% 30.34 in 10.0 mi ESE 5.8 mph - N/A   Overcast
5:53 PM 33.1 °F 30.0 °F 23.0 °F 66% 30.35 in 10.0 mi NE 3.5 mph - N/A   Overcast
6:53 PM 33.1 °F 30.0 °F 24.1 °F 70% 30.37 in 10.0 mi NE 3.5 mph - N/A   Overcast
7:53 PM 34.0 °F 31.0 °F 24.1 °F 67% 30.39 in 10.0 mi North 3.5 mph - N/A   Overcast
8:53 PM 33.1 °F 24.9 °F 24.1 °F 70% 30.41 in 10.0 mi North 10.4 mph - N/A   Overcast
9:53 PM 30.0 °F 21.7 °F 28.0 °F 92% 30.44 in 3.0 mi North 9.2 mph - 0.00 in Snow Light Snow
10:27 PM 30.2 °F 24.3 °F 28.4 °F 93% 30.43 in 2.5 mi NNE 5.8 mph - 0.00 in Snow Light Snow
10:40 PM 30.2 °F 24.3 °F 28.4 °F 93% 30.43 in 4.0 mi North 5.8 mph - 0.00 in Snow Light Snow
11:53 PM 28.9 °F - 27.0 °F 92% 30.44 in 2.5 mi Calm Calm - 0.01 in Snow Light Snow